Location: Unspecified
(0.0000°N, 0.0000°E)
Time: 04:03:51
(UTC+00:00)

deb NOAA 5 - Pass Details

Date: 17 February 2026
Orbit: 1470 x 1835 km, 102.5° (Epoch: 10 March)

Event Time Altitude Azimuth Distance (km) Brightness Sun altitude
Rises 20:38:09 0° 160° (SSE) 4,815 ? -35.2°
Reaches altitude 10° 20:41:06 10° 158° (SSE) 3,784 ? -35.9°
Enters shadow 20:42:52 18° 156° (SSE) 3,183 ? -36.3°
Exits shadow 20:59:27 - 348° (NNW) 4,036 ? -40.3°
Sets 21:00:57 0° 348° (NNW) 4,570 ? -40.7°
